STARLINK-32364, 61622

Orbit data source: Space-Track

STARLINK-32364, 61622 is a payload satellite owned by SpaceX/Seattle (US) in LEO that was launched on Wed, 23 Oct 2024 UTC via an FALCON 9 launch vehicle from the Air Force Eastern Test Range (AFETR). Payload-class satellites include a variety of spacecraft equipped with specific instruments for various scientific and technological missions. These include communications satellites like Starlink; space stations such as the ISS; scientific satellites like the Hubble; Earth observation satellites from companies like Planet Labs, Umbra, and HawkEye 360; GPS; miniature CubeSats for education and research; and military/defense satellites.

Loading next visibility...
Identifier
61622, 2024-191B
Orbit
LEO
Last TLE update
15 hours ago
Origin
Manufacturer
SpaceX/Seattle
Mission
Operational Commercial Communications
Bus & Motor
STARLINK V2M, Unknown motor
Mass
730 kg wet, ~700 kg dry
Launch date (UTC)
2024-10-23 (9 months ago)
Launch vehicle
FALCON 9
Launch site
Air Force Eastern Test Range (AFETR)
Object type
Payload
Rocket body
Debris
Shape & HBR
Box + 2 Pan, 29 m
Radar Cross Section
36.964 m², Large (>1 m²)

Expand to show TLE details & history

TLE from 15 hours ago
0 STARLINK-32364
1 61622U 24191B   25191.40538905 -.00000029  00000-0  84655-5 0  9991
2 61622  43.0009  82.6684 0001232 267.1045  92.9665 15.27574586 40485
Epoch: 2025-07-10T09:43Z
TLE epoch observation values (Epoch: 2025-07-10T09:43:45.613Z)
Latitude
-0.00008°
Longitude
8.15612°
Altitude
482.885 km
Speed
7.626 km/s
True Right ascension
05h 30m 40s
True Declination
0° 00' 00"
Sunlit
Object was in daylight at epoch
Visualization orbit readout
Latitude
-17.7874°
Longitude
-155.37371°
Altitude
486.437 km
Speed
7.623 km/s
Apparent Right ascension
21h 12m 39s
Apparent Declination
-38° 31' 00"
Sunlit
Object is in full shadow
Visualization observer readout
Local Sidereal Time
13:01:24
Azimuth
107.36° ESE
Elevation
-46.451°
Doppler factor
1
Orbital elements
Apogee altitude
485.856 km
Perigee altitude
484.165 km
Semi-major axis
6,863.147 km
Eccentricity
0.00012
Inclination
43.0009°
RAAN
82.6684°
Arg. of periapsis
267.1045°
True anomaly
Unknown
Mean anomaly
92.9665°
Eccentric anomaly
Unknown
Mean motion
3.81732 °/min
Orbital period
94.31 mins
BSTAR
0.0000084655
Loading maneuver chart data...
Loading SW <> Apogee altitude chart data...
Loading historical data...
Loading historical data...
Loading historical data...
Loading historical data...
Loading historical data...
Loading historical data...
Loading historical data...

STARLINK-32364 Visibility forecast

Observer location: undefined°, undefined°

Span
Click to sort rows by Start time (UTC) header in descending order
Start Az.
Max El. time (UTC)
Max El. Az.
Max El.
End time (UTC)
End Az.
6 mins2025-07-11 01:54:07.861Z275.233° WNW2025-07-11 01:57:07.861Z219.639° SW29.202°2025-07-11 02:00:07.861Z149.038° SSE
6 mins2025-07-11 20:30:07.861Z239.66° WSW2025-07-11 20:32:07.861Z208.945° SW41.819°2025-07-11 20:36:07.861Z74.067° E
6 mins2025-07-11 22:09:07.861Z283.121° WNW2025-07-11 22:11:07.861Z324.299° NNW36.824°2025-07-11 22:15:07.861Z73.204° E
6 mins2025-07-11 23:48:07.861Z291.739° WNW2025-07-11 23:51:07.861Z49.509° ENE42.181°2025-07-11 23:54:07.861Z97.013° ESE
|